Location: Cheyres
(46.8153°N, 6.7877°E)
Time: 01:24:00
(UTC+00:00)

Tiros 1 - Pass Details

Date: 03 June 2022
Orbit: 629 x 663 km, 48.4° (Epoch: 05 July)

Event Time Altitude Azimuth Distance (km) Brightness Sun altitude
Rises 23:35:29 0° 271° (W) 2,913 10.5 -20.8°
Reaches altitude 10° 23:37:48 10° 273° (W) 2,007 9.7 -20.8°
Maximum altitude 23:42:25 72° 358° (N) 667 7.3 -20.7°
Drops below altitude 10° 23:47:03 10° 84° (E) 2,018 9.8 -20.7°
Sets 23:49:24 0° 86° (E) 2,931 10.6 -20.7°
